Regional Weather Roundup
Issued by NWS

Home | Current Version | Previous Version | Text Only | Print | Product List | Glossary Off
Versions: 1 2 3 4 5 6 7 8 9 10 11 12 13 14 15 16 17 18 19 20 21 22 23 24 25 26 27 28 29 30 31 32 33 34 35 36 37 38 39 40 41 42 43 44 45 46 47 48 49 50

000
ASUS43 KLMK 220802
RWRKY
KENTUCKY REGIONAL WEATHER ROUNDUP
NATIONAL WEATHER SERVICE LOUISVILLE KY
400 AM EDT MON SEP 22 2014

NOTE "FAIR" INDICATES FEW OR NO CLOUDS BELOW 12,000 FEET
WITH NO SIGNIFICANT WEATHER AND/OR OBSTRUCTIONS TO VISIBILITY.

KYZ001>023-026-027-061>063-070>075-220900-
WESTERN AND SOUTH CENTRAL KENTUCKY

CITY           SKY/WX    TMP DP  RH WIND       PRES   REMARKS
PADUCAH        CLEAR     60  51  72 CALM      30.13S
HENDERSON      CLEAR     57  48  72 N5        30.13R
OWENSBORO      CLEAR     53  51  93 CALM      30.12S
HOPKINSVILLE   CLEAR     56  50  80 N6        30.12R
BOWLING GREEN  CLEAR     57  49  74 CALM      30.11S
GLASGOW        NOT AVBL
$$

KYZ024-025-028>034-038-045-046-053-220900-
NORTH CENTRAL KENTUCKY

CITY           SKY/WX    TMP DP  RH WIND       PRES   REMARKS
LOUISVILLE/SDF CLEAR     57  50  77 N6        30.11R
LOUISVILLE/LOU CLEAR     57  49  74 N3        30.11R
FORT KNOX      CLEAR     51  49  94 NW5       30.10R
$$

KYZ035>037-039>044-047>052-055>060-089>105-220900-
NORTHEAST KENTUCKY

CITY           SKY/WX    TMP DP  RH WIND       PRES   REMARKS
LEXINGTON      CLEAR     53  47  79 N5        30.09S
COVINGTON      CLEAR     52  46  80 N9        30.09R
FRANKFORT      CLEAR     53  47  79 N3        30.09R
$$

KYZ054-064>069-076>088-106>120-220900-
SOUTHEAST KENTUCKY

CITY           SKY/WX    TMP DP  RH WIND       PRES   REMARKS
JACKSON        CLEAR     54  46  74 VRB5      30.07R
LONDON         CLEAR     56  47  71 N3        30.09R
SOMERSET       CLEAR     52  48  87 CALM      30.10S
MIDDLESBORO    CLEAR     53  52  97 CALM      30.07S
MONTICELLO     SUNNY     51  50  97 CALM      30.11S
$$



USA.gov is the U.S. government's official web portal to all federal, state and local government web resources and services.